User: anonymous   Login
Location: Wellington
(41.3000°S, 174.7830°E)
Time: 07:44:45
(UTC+13:00)
Language:

Cosmos 2181 Rocket - Orbit

View from above orbital plane
View from above orbital plane
View from above satellite
View from above satellite

Ground track
Ground track

The orbit data is extracted from the following two-line orbital elements,

1 21903U 92012B   19287.90943972 +.00000112 +00000-0 +10221-3 0  9992
2 21903 082.9332 274.2884 0041450 243.1090 176.8098 13.74503729384030
Epoch (UTC): 14 October 2019 21:49:35
Eccentricity: 0.0041450
inclination: 82.9332°
perigee height: 953 km
apogee height: 1014 km
right ascension of ascending node: 274.2884°
argument of perigee: 243.1090°
revolutions per day: 13.74503729
mean anomaly at epoch: 176.8098°
orbit number at epoch: 38403

The dashed part of the orbit path shows where the satellite is in the earth's shadow,  

DLR